Weather History for Jefferson City, MO

Change the Weather History Date:

Saturday, March 23, 2013

  Actual Average Record
Temperature  
Mean Temperature 44 °F -  
Max Temperature 52 °F 61 °F 94 °F (1929)
Min Temperature 37 °F 34 °F 15 °F (1974)
Degree Days  
Heating Degree Days 21    
Moisture  
Dew Point 27 °F    
Average Humidity 53    
Maximum Humidity 86    
Minimum Humidity 38    
Precipitation  
Precipitation 0.10 in - - ()
Sea Level Pressure  
Sea Level Pressure 29.94 in    
Wind  
Wind Speed 6 mph (ENE)    
Max Wind Speed 14 mph    
Max Gust Speed 21 mph    
Visibility 9 miles    
Events Rain    
Averages and records for this station are not official NWS values.
T = Trace of Precipitation, MM = Missing Value Source: NWS Daily Summary

Daily Weather History Graph

Daily Weather History Graph

Search for Another Location

Airport:

Trip Planner

Search our weather history database for the weather conditions in past years. The results will help you decide how hot, cold, wet, or windy it might be!

Date:

Astronomy

Mar. 23, 2013 Rise Set
Actual Time 7:07 AM CDT 7:23 PM CDT
Civil Twilight 6:40 AM CDT 7:50 PM CDT
Nautical Twilight 6:09 AM CDT 8:21 PM CDT
Astronomical Twilight 5:37 AM CDT 8:53 PM CDT
Moon 3:53 PM CDT (3/23) 4:41 AM CDT (3/23)
Length of Visible Light 13h 09m
Length of Day
12h 16m
Waxing Gibbous, 85% of the Moon is Illuminated
Mar 23
Waxing Gibbous
Mar 27
Full
Apr 2
Last Quarter
Apr 10
New
Apr 18
First Quarter

Hourly Weather History & Observations

Time (CDT) Temp. Windchill Dew Point Humidity Pressure Visibility Wind Dir Wind Speed Gust Speed Precip Events Conditions
12:53 AM 39.9 °F 37.8 °F 27.0 °F 60% 30.00 in 10.0 mi East 3.5 mph - N/A   Overcast
1:53 AM 39.9 °F 37.8 °F 26.1 °F 58% 30.00 in 10.0 mi NNE 3.5 mph - N/A   Overcast
2:53 AM 39.0 °F 34.8 °F 25.0 °F 57% 29.99 in 10.0 mi NE 5.8 mph - N/A   Overcast
3:53 AM 39.0 °F 34.8 °F 25.0 °F 57% 29.97 in 10.0 mi NE 5.8 mph - N/A   Overcast
4:53 AM 39.0 °F 34.8 °F 25.0 °F 57% 29.97 in 10.0 mi NE 5.8 mph - N/A   Overcast
5:53 AM 37.9 °F 34.4 °F 25.0 °F 60% 29.98 in 10.0 mi NE 4.6 mph - N/A   Overcast
6:53 AM 37.9 °F 35.5 °F 25.0 °F 60% 30.00 in 10.0 mi NE 3.5 mph - N/A   Overcast
7:53 AM 37.9 °F 35.5 °F 24.1 °F 57% 30.01 in 10.0 mi ENE 3.5 mph - N/A   Overcast
8:53 AM 39.0 °F 34.8 °F 24.1 °F 55% 30.01 in 10.0 mi ENE 5.8 mph - N/A   Overcast
9:53 AM 39.9 °F 33.9 °F 21.9 °F 49% 30.00 in 10.0 mi East 9.2 mph - N/A   Overcast
10:02 AM 41.0 °F 35.8 °F 23.0 °F 49% 30.01 in 10.0 mi ENE 8.1 mph - N/A   Overcast
10:53 AM 42.1 °F 37.1 °F 23.0 °F 47% 30.00 in 10.0 mi NE 8.1 mph - N/A   Overcast
11:35 AM 44.6 °F 40.7 °F 24.8 °F 46% 30.01 in 10.0 mi East 6.9 mph - N/A   Overcast
11:53 AM 44.1 °F 40.8 °F 24.1 °F 45% 29.99 in 10.0 mi East 5.8 mph - N/A   Overcast
12:02 PM 44.6 °F 41.4 °F 24.8 °F 46% 30.01 in 10.0 mi Variable 5.8 mph - N/A   Overcast
12:53 PM 48.0 °F - 27.0 °F 44% 29.96 in 10.0 mi ENE 8.1 mph - N/A   Overcast
1:53 PM 48.9 °F - 26.1 °F 41% 29.94 in 10.0 mi NE 8.1 mph - N/A   Overcast
2:53 PM 50.0 °F - 26.1 °F 39% 29.89 in 10.0 mi East 6.9 mph - N/A   Overcast
3:53 PM 51.1 °F - 27.0 °F 39% 29.84 in 10.0 mi East 12.7 mph 20.7 mph N/A   Overcast
4:53 PM 51.1 °F - 26.1 °F 38% 29.83 in 10.0 mi ENE 11.5 mph 20.7 mph N/A   Overcast
5:53 PM 50.0 °F - 27.0 °F 41% 29.82 in 10.0 mi ENE 12.7 mph 20.7 mph 0.00 in   Overcast
6:53 PM 50.0 °F - 27.0 °F 41% 29.82 in 10.0 mi ENE 8.1 mph - N/A   Overcast
7:53 PM 48.9 °F - 26.1 °F 41% 29.83 in 10.0 mi Calm Calm - N/A   Overcast
9:53 PM 44.1 °F 38.6 °F 36.0 °F 73% 29.84 in 6.0 mi ENE 10.4 mph - 0.03 in Rain Light Rain
10:53 PM 43.0 °F 38.8 °F 36.0 °F 76% 29.86 in 8.0 mi North 6.9 mph - 0.01 in Rain Light Rain
11:05 PM 42.8 °F 38.6 °F 35.6 °F 76% 29.88 in 7.0 mi Variable 6.9 mph - 0.00 in Rain Light Rain
11:53 PM 39.9 °F 32.1 °F 36.0 °F 86% 29.85 in 4.0 mi NE 13.8 mph 19.6 mph 0.06 in Rain Light Rain